Wind_Speed
10 11 12 14 15 16 17 19 20 21 22 23 24 26 27 28 29 30 31 31 31 31 31 32 32 33 33 34 34 35 35 36 35 37 39 39 40 40 41 41 41 41 42
12 13 15 16 17 18 19 21 22 23 24 25 26 27 29 30 31 32 33 33 33 33 33 33 33 33 33 34 34 35 36 36 36 36 38 39 40 41 42 42 43 43 43
14 15 17 18 19 20 21 23 24 25 26 27 28 29 30 32 32 33 34 34 34 33 34 34 34 34 34 34 34 34 35 35 35 35 36 38 39 41 41 42 43 44 44
16 17 19 20 21 22 23 25 26 27 27 28 29 30 31 32 33 35 35 35 34 34 35 35 35 35 35 34 34 33 34 34 35 34 35 37 38 40 41 42 43 45 45
18 19 20 21 23 24 25 26 27 28 29 30 31 32 33 34 35 36 36 36 35 36 36 36 36 35 35 34 33 33 33 33 34 34 34 35 37 39 40 41 42 44 45
20 21 22 24 25 26 27 28 29 30 31 32 33 34 35 36 36 37 37 37 37 37 36 37 37 36 35 34 34 33 33 33 34 34 34 35 36 38 39 40 41 43 44
22 24 25 26 27 28 29 30 31 32 33 34 35 35 36 37 37 38 38 37 37 37 37 37 37 36 35 35 34 33 33 33 33 33 32 33 34 36 38 39 40 41 43
25 26 27 28 29 30 31 32 33 34 34 35 36 36 37 38 39 39 39 39 39 39 38 37 36 35 35 35 34 34 33 33 33 32 32 32 33 34 36 38 39 39 40
27 28 29 30 31 32 33 34 34 35 36 37 37 38 38 39 40 40 40 40 40 39 38 37 36 35 36 35 34 33 33 33 33 33 32 32 33 34 35 36 38 39 39
29 30 31 32 33 34 35 35 36 37 38 38 39 40 40 40 41 41 41 40 40 39 39 38 37 36 36 35 34 33 32 32 32 32 32 32 32 33 34 36 37 39 39
32 33 33 34 35 37 37 37 38 39 40 41 41 41 42 42 42 42 42 41 40 40 38 37 36 36 35 35 34 33 32 31 31 31 31 32 32 33 34 35 37 38 39
34 35 36 36 37 38 39 40 40 41 41 42 42 42 43 43 43 43 43 42 40 39 38 37 36 35 35 35 33 32 31 30 30 30 30 31 32 33 34 35 36 38 39
35 36 38 38 39 40 41 42 42 43 44 44 44 44 44 44 45 45 43 42 40 39 38 36 35 35 35 34 32 31 30 29 29 29 29 30 31 32 33 33 35 36 38
37 38 40 41 42 43 44 44 45 45 45 45 46 46 46 45 45 45 43 42 40 39 37 36 35 35 34 33 31 30 29 28 28 28 28 29 29 30 30 31 32 34 36
40 41 42 43 44 45 46 46 46 46 47 47 47 47 47 46 45 45 43 41 40 39 37 36 35 35 34 32 30 29 29 28 28 27 27 27 28 28 29 30 31 33 34
42 43 44 45 46 47 47 47 47 48 48 48 48 48 48 47 46 45 43 42 40 38 38 37 35 34 32 31 30 29 28 27 27 27 26 26 26 26 27 29 30 32 33
45 46 46 47 48 48 49 49 49 49 50 50 50 49 48 48 47 45 43 41 40 38 38 36 35 33 32 31 30 29 28 27 26 26 25 25 25 25 25 27 28 30 32
47 48 48 49 50 49 50 51 51 51 51 51 50 50 49 48 46 45 43 41 39 38 36 34 33 33 32 30 30 29 28 27 26 26 25 24 24 24 24 25 27 28 30
49 49 50 50 51 52 53 53 54 54 53 52 51 50 49 47 45 43 41 39 37 36 35 33 32 32 30 29 29 28 27 26 26 26 25 24 24 23 23 24 25 27 28
51 51 52 53 54 54 54 54 54 54 53 52 50 49 47 45 43 41 38 36 34 34 33 32 31 30 29 28 28 27 27 26 26 25 25 24 24 23 22 23 23 24 26
52 53 53 54 55 55 55 55 54 54 52 51 49 47 45 43 40 37 35 34 32 32 31 31 31 29 27 27 27 26 26 26 25 24 23 23 23 22 22 22 22 23 24
54 55 55 55 55 56 55 55 55 53 51 49 46 44 41 38 36 34 32 31 30 30 29 29 27 27 27 27 26 25 25 25 24 23 23 22 21 21 20 20 21 21 22
55 55 55 56 56 56 55 54 53 50 47 45 42 40 38 35 33 32 30 29 28 28 27 26 26 26 25 25 24 24 23 22 22 21 21 20 20 19 19 19 19 19 20
55 55 54 54 53 52 50 49 47 45 42 39 37 35 34 32 30 29 28 28 27 26 25 24 24 24 23 23 23 22 22 21 21 20 19 19 18 18 18 18 18 18 19
52 51 51 50 48 47 45 43 42 39 37 35 33 32 30 28 27 26 25 24 23 23 23 22 22 22 22 21 21 21 20 20 20 19 18 17 17 17 17 17 18 18 19
48 48 46 45 43 42 41 39 36 33 31 30 29 27 26 25 23 22 21 20 20 20 20 20 21 20 20 20 20 19 19 18 18 18 17 17 16 16 16 17 17 18 19
Wind_Direction
305 310 313 314 315 317 319 320 321 323 324 324 323 323 322 322 322 321 319 316 313 311 308 306 303 300 296 291 287 283 278 272 267 264 262 259 256 253 250 247 245 243 241
304 307 309 310 312 313 314 316 318 319 320 320 321 321 322 321 321 320 319 316 313 311 310 308 305 302 298 293 290 285 280 275 270 265 262 259 257 253 250 248 246 244 241
301 303 305 307 309 310 310 312 315 316 316 317 318 319 319 319 319 319 318 316 314 312 310 309 307 304 300 296 292 288 283 278 273 268 263 260 257 254 251 248 246 244 242
297 299 302 305 306 307 309 311 313 314 315 315 316 317 317 318 318 318 318 316 314 312 311 309 307 304 301 297 293 289 285 280 276 271 265 261 258 256 252 249 246 244 242
293 295 298 301 303 304 307 309 310 312 313 314 315 315 315 316 317 317 317 316 314 312 310 309 307 304 301 298 295 291 287 282 277 272 267 263 260 257 254 250 246 244 242
290 292 295 298 300 302 304 306 308 309 310 311 313 313 314 315 315 316 315 314 313 312 310 308 306 304 302 298 295 292 289 284 279 274 270 266 261 258 254 251 247 243 241
290 292 294 296 298 300 302 303 305 307 308 310 312 313 313 314 315 315 314 314 313 312 310 308 306 304 302 299 296 294 290 286 280 275 271 267 263 259 255 251 248 244 240
291 293 294 296 297 299 301 303 304 306 308 310 311 311 312 313 313 314 314 314 313 311 309 308 305 304 303 300 297 294 290 286 280 276 272 268 265 261 257 252 249 245 241
290 291 293 295 297 299 300 302 304 305 307 309 310 310 311 312 313 313 313 313 312 311 309 307 305 304 303 301 298 294 290 286 281 278 274 270 266 262 258 253 249 246 242
290 292 293 294 296 298 300 301 303 305 307 308 309 309 310 311 313 312 312 312 311 310 308 306 305 304 302 300 297 295 291 287 283 279 275 272 267 263 259 255 250 246 243
291 292 293 294 296 297 299 300 302 303 305 307 309 309 309 310 311 311 310 309 309 308 307 305 304 304 302 299 297 295 291 288 284 281 276 273 269 264 260 256 252 246 243
291 292 293 294 295 297 299 300 301 302 304 305 306 307 308 309 310 310 309 307 307 306 305 304 302 302 302 299 297 294 292 289 285 281 278 275 271 265 261 257 253 248 244
291 292 293 294 296 297 298 299 300 302 303 303 304 305 306 307 307 308 307 305 305 305 304 303 301 301 301 299 297 295 293 290 286 283 280 277 273 267 262 258 253 248 244
290 291 292 293 295 296 298 299 300 301 301 301 303 303 304 305 306 306 305 304 303 303 302 302 301 300 301 299 296 294 293 291 287 286 283 279 275 270 263 258 254 249 245
291 292 293 293 295 295 297 298 298 299 300 300 301 301 302 303 303 303 303 302 302 301 300 300 300 300 299 298 296 294 293 291 289 287 286 281 276 272 265 258 254 251 246
292 292 293 293 294 295 295 296 297 298 298 299 299 299 300 301 301 301 301 300 299 298 297 298 298 298 297 296 295 294 292 291 290 288 286 282 277 272 266 261 257 252 248
291 292 292 293 293 293 294 295 295 295 296 297 297 297 298 298 298 298 298 297 295 295 295 295 295 295 295 294 295 294 291 290 290 290 286 282 279 275 269 263 259 253 248
291 291 292 292 292 292 293 294 294 294 294 295 295 295 295 295 294 294 295 293 292 292 293 293 294 294 293 292 293 294 292 288 288 289 287 282 279 277 271 265 260 255 247
292 292 292 291 291 292 293 293 293 293 293 293 293 294 293 292 290 290 291 291 290 290 291 291 292 293 292 292 293 292 291 288 286 286 285 282 279 278 273 268 263 255 248
292 292 292 292 292 292 292 292 292 292 292 292 292 292 290 289 288 288 288 287 286 287 288 289 291 292 292 292 291 291 290 288 286 284 283 281 278 276 274 270 264 257 248
292 292 292 292 292 291 291 291 291 291 290 290 290 289 288 286 286 285 285 285 283 284 285 286 289 290 290 291 290 289 289 288 286 283 281 280 278 274 272 269 264 257 248
294 293 293 292 292 291 291 290 290 289 288 288 287 286 285 284 283 282 283 282 282 282 284 286 287 289 290 291 290 289 290 289 285 282 280 278 277 273 270 266 262 255 246
294 294 293 293 292 292 291 290 290 288 286 285 283 282 281 280 278 278 278 278 280 282 285 286 287 288 290 291 290 290 289 287 284 281 278 277 275 271 266 263 259 253 246
294 294 294 294 293 293 292 290 289 287 284 282 279 278 277 275 274 273 273 275 279 281 282 284 287 289 290 291 291 291 289 284 282 281 277 274 273 269 264 261 255 249 241
296 295 295 295 295 293 292 291 289 286 282 278 275 274 272 272 271 269 270 274 277 279 280 284 288 291 292 292 293 294 291 286 282 279 276 273 272 268 262 257 251 243 238
298 297 297 297 296 295 293 292 288 284 280 277 274 271 269 268 266 267 269 271 273 277 280 284 288 292 293 294 295 296 294 290 284 279 275 272 271 267 260 254 247 239 235
Height
5851 5850 5848 5846 5845 5842 5840 5837 5834 5831 5828 5825 5822 5818 5815 5811 5807 5803 5799 5795 5791 5787 5784 5780 5777 5774 5771 5768 5766 5764 5763 5763 5763 5762 5762 5763 5764 5766 5768 5771 5774 5777 5780
5847 5846 5845 5843 5841 5838 5836 5833 5830 5827 5824 5820 5816 5813 5809 5805 5801 5796 5792 5788 5783 5779 5775 5771 5767 5764 5761 5758 5755 5753 5751 5750 5751 5751 5750 5750 5752 5753 5756 5759 5761 5765 5768
5843 5842 5840 5838 5836 5833 5831 5828 5825 5822 5818 5814 5810 5806 5802 5798 5794 5789 5785 5780 5775 5771 5767 5762 5758 5755 5751 5748 5745 5742 5740 5738 5738 5738 5738 5738 5739 5740 5743 5746 5749 5752 5756
5839 5837 5836 5833 5831 5828 5825 5822 5819 5816 5812 5808 5804 5800 5796 5791 5787 5782 5777 5772 5767 5762 5758 5753 5749 5745 5741 5738 5735 5732 5729 5727 5726 5726 5726 5726 5727 5727 5730 5733 5736 5739 5743
5834 5832 5830 5828 5825 5822 5819 5816 5813 5809 5805 5801 5797 5793 5788 5784 5779 5774 5769 5764 5759 5754 5749 5744 5740 5735 5731 5728 5724 5721 5719 5717 5715 5714 5714 5714 5715 5715 5717 5719 5722 5725 5729
5828 5826 5824 5822 5819 5816 5813 5809 5806 5802 5798 5794 5789 5785 5780 5775 5771 5766 5761 5756 5750 5745 5740 5735 5730 5726 5722 5718 5714 5711 5708 5706 5704 5703 5702 5702 5702 5702 5704 5706 5709 5713 5718
5822 5820 5817 5815 5812 5809 5805 5802 5798 5794 5790 5786 5781 5776 5772 5767 5762 5757 5752 5746 5741 5736 5731 5725 5720 5716 5712 5708 5704 5701 5698 5695 5693 5692 5691 5691 5690 5690 5691 5694 5696 5699 5704
5815 5813 5810 5807 5804 5801 5797 5794 5790 5786 5782 5777 5773 5768 5763 5758 5753 5748 5742 5737 5732 5726 5721 5716 5711 5706 5702 5698 5694 5691 5687 5685 5682 5681 5680 5680 5679 5679 5679 5681 5683 5687 5692
5807 5805 5802 5799 5796 5793 5789 5785 5781 5777 5773 5768 5764 5759 5754 5749 5743 5738 5733 5727 5722 5716 5711 5706 5701 5696 5692 5687 5684 5681 5677 5674 5671 5670 5669 5668 5668 5668 5668 5670 5672 5675 5679
5799 5796 5794 5791 5787 5784 5780 5776 5772 5768 5763 5759 5754 5749 5744 5739 5733 5728 5722 5717 5712 5706 5701 5695 5691 5686 5682 5677 5673 5670 5667 5664 5661 5660 5658 5658 5657 5657 5657 5658 5660 5663 5667
5791 5788 5785 5781 5778 5774 5770 5766 5762 5758 5753 5748 5744 5739 5734 5729 5723 5718 5712 5707 5702 5696 5691 5686 5681 5676 5671 5667 5663 5660 5657 5654 5652 5649 5648 5647 5646 5646 5646 5647 5649 5651 5655
5782 5778 5775 5771 5768 5764 5760 5756 5751 5747 5742 5738 5733 5728 5723 5717 5712 5707 5701 5696 5691 5686 5681 5676 5671 5666 5662 5657 5654 5650 5647 5644 5642 5640 5638 5636 5635 5635 5635 5635 5637 5639 5642
5771 5768 5764 5760 5756 5753 5749 5744 5740 5735 5731 5726 5721 5717 5711 5706 5701 5696 5690 5685 5680 5675 5670 5666 5661 5656 5652 5648 5644 5640 5637 5634 5632 5630 5628 5626 5624 5624 5623 5624 5625 5627 5630
5760 5757 5753 5749 5745 5741 5736 5732 5728 5723 5719 5714 5709 5704 5700 5695 5690 5684 5679 5674 5669 5664 5660 5655 5651 5646 5642 5638 5635 5631 5628 5625 5622 5620 5618 5616 5614 5613 5613 5613 5614 5616 5619
5748 5744 5740 5736 5733 5729 5724 5720 5715 5711 5706 5701 5697 5692 5687 5683 5677 5672 5667 5662 5658 5653 5649 5645 5641 5637 5633 5629 5626 5622 5619 5616 5613 5611 5608 5606 5604 5603 5603 5603 5604 5605 5608
5735 5731 5727 5723 5720 5715 5711 5707 5702 5698 5693 5688 5683 5678 5674 5669 5664 5660 5655 5651 5646 5642 5638 5635 5631 5627 5623 5620 5616 5613 5610 5607 5604 5602 5599 5597 5595 5594 5593 5593 5594 5595 5597
5722 5718 5714 5710 5705 5701 5697 5693 5689 5685 5679 5674 5669 5665 5660 5656 5651 5647 5642 5638 5634 5631 5627 5624 5620 5617 5614 5610 5607 5604 5601 5598 5596 5593 5591 5589 5587 5585 5584 5584 5584 5584 5586
5708 5704 5700 5695 5691 5686 5682 5678 5673 5669 5666 5661 5656 5650 5646 5641 5637 5633 5630 5626 5623 5619 5616 5613 5610 5607 5604 5601 5598 5595 5592 5589 5587 5585 5582 5580 5578 5577 5575 5575 5574 5575 5576
5693 5689 5685 5680 5675 5671 5666 5662 5657 5653 5649 5645 5641 5636 5631 5627 5623 5620 5617 5614 5611 5608 5605 5603 5600 5597 5594 5591 5588 5586 5583 5580 5578 5576 5574 5572 5570 5568 5567 5566 5565 5565 5566
5678 5673 5668 5664 5659 5655 5650 5645 5641 5637 5632 5628 5625 5621 5616 5613 5610 5607 5604 5602 5599 5597 5594 5592 5590 5587 5584 5582 5579 5576 5574 5571 5569 5567 5565 5563 5562 5560 5559 5557 5557 5557 5558
5662 5657 5652 5647 5642 5637 5633 5628 5624 5620 5616 5612 5609 5605 5602 5599 5596 5594 5592 5590 5588 5586 5584 5582 5580 5577 5575 5572 5570 5567 5565 5562 5560 5558 5557 5555 5553 5552 5551 5550 5549 5549 5550
5644 5639 5634 5629 5624 5619 5615 5610 5606 5602 5599 5596 5593 5590 5588 5585 5583 5582 5580 5579 5577 5576 5574 5573 5570 5568 5566 5563 5561 5558 5556 5554 5551 5550 5548 5547 5545 5544 5543 5542 5542 5542 5543
5626 5621 5616 5611 5606 5601 5596 5592 5588 5585 5582 5579 5577 5576 5574 5573 5571 5570 5570 5569 5567 5566 5565 5563 5562 5560 5557 5555 5552 5550 5548 5545 5544 5542 5541 5539 5538 5537 5536 5535 5535 5535 5536
5608 5603 5598 5593 5588 5583 5579 5574 5571 5568 5566 5564 5563 5562 5561 5561 5560 5560 5559 5559 5558 5557 5556 5555 5553 5551 5549 5547 5544 5542 5540 5538 5536 5535 5533 5532 5531 5530 5530 5529 5529 5529 5530
5591 5586 5581 5576 5571 5567 5563 5559 5556 5553 5551 5550 5550 5550 5549 5549 5549 5549 5549 5549 5549 5549 5548 5547 5546 5544 5542 5540 5537 5535 5533 5530 5529 5527 5526 5525 5524 5524 5523 5523 5523 5524 5525
5575 5570 5565 5560 5556 5552 5548 5545 5542 5540 5539 5538 5538 5538 5539 5539 5540 5541 5541 5541 5541 5541 5541 5540 5539 5537 5535 5533 5530 5528 5526 5524 5522 5521 5520 5519 5518 5517 5517 5517 5517 5518 5520